Fort Lewis, WA

2:31 AM PDT on May 25, 2018 (GMT -0700)
Gray Army Air Field

Weather History for KGRF - September, 2013

Change the Weather History Date:

Tuesday, September 24, 2013

  Actual Average Record
Temperature  
Mean Temperature 52 °F -  
Max Temperature 60 °F 68 °F 86 °F (1997)
Min Temperature 44 °F 45 °F 33 °F (2005)
Degree Days  
Heating Degree Days 14    
Growing Degree Days 2 (Base 50)    
Moisture  
Dew Point 49 °F    
Average Humidity 91    
Maximum Humidity 100    
Minimum Humidity 67    
Precipitation  
Precipitation 0.39 in - - ()
Sea Level Pressure  
Sea Level Pressure 29.89 in    
Wind  
Wind Speed 6 mph (SSE)    
Max Wind Speed 16 mph    
Max Gust Speed 18 mph    
Visibility 9 miles    
Events Rain    
Averages and records for this station are not official NWS values.
T = Trace of Precipitation, MM = Missing Value Source: NWS Daily Summary

Daily Weather History Graph

Daily Weather History Graph

Search for Another Location

Airport or City:

Astronomy

Sep. 24, 2013 Rise Set
Actual Time 7:00 AM PDT 7:03 PM PDT
Civil Twilight 6:29 AM PDT 7:33 PM PDT
Nautical Twilight 5:54 AM PDT 8:09 PM PDT
Astronomical Twilight 5:17 AM PDT 8:45 PM PDT
Moon 10:05 PM PDT (9/24) 12:39 PM PDT (9/24)
Length of Visible Light 13h 03m
Length of Day
12h 03m
Waning Gibbous, 72% of the Moon is Illuminated
Sep 24
Waning Gibbous
Sep 26
Last Quarter
Oct 4
New
Oct 11
First Quarter
Oct 18
Full

Hourly Weather History & Observations

Time (PDT) Temp. Windchill Dew Point Humidity Pressure Visibility Wind Dir Wind Speed Gust Speed Precip Events Conditions
12:58 AM 48.4 °F - 48.0 °F 99% 29.99 in 10.0 mi ESE 4.6 mph - N/A   Clear
1:58 AM 47.1 °F - 46.8 °F 99% 29.98 in 10.0 mi SE 5.8 mph - N/A   Partly Cloudy
2:58 AM 46.8 °F - 46.6 °F 99% 29.96 in 10.0 mi SE 8.1 mph - N/A   Clear
3:21 AM 46.4 °F 42.4 °F 46.4 °F 100% 29.95 in 10.0 mi SSE 8.1 mph - N/A Rain Light Rain
3:52 AM 46.4 °F 44.3 °F 46.4 °F 100% 29.95 in 10.0 mi SE 4.6 mph - N/A   Mostly Cloudy
3:58 AM 46.9 °F - 46.8 °F 99% 29.96 in 10.0 mi SE 4.6 mph - 0.00 in   Mostly Cloudy
4:58 AM 45.5 °F - 45.3 °F 99% 29.96 in 10.0 mi SSE 2.3 mph - N/A   Partly Cloudy
5:35 AM 46.4 °F 43.5 °F 44.6 °F 93% 29.94 in 10.0 mi SSE 5.8 mph - N/A Rain Rain
5:48 AM 46.4 °F 43.5 °F 46.4 °F 100% 29.93 in 10.0 mi SSE 5.8 mph - N/A   Mostly Cloudy
5:58 AM 45.9 °F 42.3 °F 45.7 °F 99% 29.95 in 10.0 mi SE 6.9 mph - 0.00 in   Mostly Cloudy
6:36 AM 44.6 °F 41.4 °F 44.6 °F 100% 29.92 in 10.0 mi SE 5.8 mph - N/A Rain Rain
6:39 AM 44.6 °F 41.4 °F 44.6 °F 100% 29.93 in 10.0 mi SE 5.8 mph - N/A   Partly Cloudy
6:58 AM 44.2 °F 40.3 °F 43.9 °F 99% 29.94 in 10.0 mi SSE 6.9 mph - 0.00 in   Clear
7:58 AM 45.5 °F 42.5 °F 45.3 °F 99% 29.94 in 10.0 mi SE 5.8 mph - N/A   Clear
8:58 AM 49.5 °F - 48.6 °F 97% 29.94 in 10.0 mi Calm Calm - N/A   Clear
9:58 AM 53.8 °F - 48.9 °F 84% 29.94 in 10.0 mi Calm Calm - N/A   Scattered Clouds
10:58 AM 56.5 °F - 49.8 °F 78% 29.93 in 10.0 mi SSE 8.1 mph - N/A   Mostly Cloudy
11:58 AM 58.3 °F - 49.6 °F 73% 29.91 in 10.0 mi South 4.6 mph - N/A   Mostly Cloudy
12:28 PM 59.0 °F - 50.0 °F 72% 29.88 in 10.0 mi ESE 8.1 mph - N/A   Overcast
12:38 PM 59.0 °F - 50.0 °F 72% 29.88 in 10.0 mi SE 6.9 mph - N/A   Mostly Cloudy
12:58 PM 58.6 °F - 49.3 °F 71% 29.89 in 10.0 mi South 5.8 mph - N/A   Mostly Cloudy
1:43 PM 59.0 °F - 48.2 °F 67% 29.86 in 10.0 mi SE 5.8 mph - N/A   Light Drizzle
1:58 PM 58.5 °F - 50.0 °F 73% 29.88 in 10.0 mi ESE 4.6 mph - 0.00 in   Light Drizzle
2:11 PM 59.0 °F - 50.0 °F 72% 29.86 in 10.0 mi East 3.5 mph - N/A   Mostly Cloudy
2:57 PM 57.2 °F - 51.8 °F 82% 29.86 in 10.0 mi WSW 8.1 mph - N/A Rain Light Rain
2:58 PM 57.2 °F - 51.3 °F 81% 29.88 in 10.0 mi WSW 10.4 mph - 0.00 in Rain Light Rain
3:00 PM 57.2 °F - 50.0 °F 77% 29.86 in 1.5 mi West 16.1 mph 18.4 mph N/A Rain Light Rain
3:05 PM 55.4 °F - 50.0 °F 82% 29.87 in 0.8 mi West 11.5 mph 18.4 mph N/A Rain Heavy Rain
3:10 PM 53.6 °F - 50.0 °F 88% 29.86 in 0.8 mi West 13.8 mph - N/A Rain Heavy Rain
3:15 PM 53.6 °F - 50.0 °F 88% 29.86 in 0.8 mi West 12.7 mph - N/A Rain Rain
3:20 PM 53.6 °F - 50.0 °F 88% 29.86 in 2.5 mi West 9.2 mph - N/A Rain Light Rain
3:25 PM 53.6 °F - 51.8 °F 94% 29.86 in 10.0 mi West 10.4 mph - N/A   Light Drizzle
3:30 PM 53.6 °F - 51.8 °F 94% 29.86 in 10.0 mi West 10.4 mph - N/A   Light Drizzle
3:31 PM 53.6 °F - 51.8 °F 94% 29.86 in 10.0 mi West 9.2 mph - N/A   Scattered Clouds
3:35 PM 53.6 °F - 51.8 °F 94% 29.86 in 10.0 mi West 11.5 mph - N/A   Light Drizzle
3:58 PM 53.1 °F - 51.3 °F 94% 29.88 in 10.0 mi SSW 6.9 mph - 0.32 in Rain Light Rain
4:32 PM 53.6 °F - 50.0 °F 88% 29.86 in 10.0 mi SSW 5.8 mph - N/A   Overcast
4:58 PM 53.4 °F - 49.8 °F 88% 29.88 in 10.0 mi SSE 5.8 mph - 0.06 in   Overcast
5:02 PM 53.6 °F - 50.0 °F 88% 29.86 in 10.0 mi SSE 5.8 mph - N/A   Light Drizzle
5:09 PM 53.6 °F - 50.0 °F 88% 29.86 in 10.0 mi SSE 6.9 mph - N/A   Overcast
5:11 PM 53.6 °F - 50.0 °F 88% 29.86 in 10.0 mi SSE 6.9 mph - N/A   Light Drizzle
5:12 PM 53.6 °F - 50.0 °F 88% 29.86 in 10.0 mi SSE 6.9 mph - N/A   Overcast
5:13 PM 53.6 °F - 50.0 °F 88% 29.86 in 10.0 mi SSE 6.9 mph - N/A   Light Drizzle
5:36 PM 51.8 °F - 50.0 °F 94% 29.87 in 10.0 mi SSE 8.1 mph - N/A   Overcast
5:58 PM 52.2 °F - 50.5 °F 94% 29.88 in 10.0 mi SSE 8.1 mph - 0.00 in   Scattered Clouds
6:10 PM 51.8 °F - 50.0 °F 94% 29.86 in 10.0 mi SSE 8.1 mph - N/A   Light Drizzle
6:43 PM 51.8 °F - 50.0 °F 94% 29.86 in 10.0 mi SE 6.9 mph - N/A   Mostly Cloudy
6:58 PM 51.1 °F - 49.6 °F 95% 29.88 in 10.0 mi SE 5.8 mph - 0.01 in   Mostly Cloudy
7:13 PM 51.8 °F - 50.0 °F 94% 29.86 in 10.0 mi SSE 4.6 mph - N/A Rain Light Rain
7:42 PM 50.0 °F - 50.0 °F 100% 29.86 in 10.0 mi SE 4.6 mph - N/A   Overcast
7:58 PM 50.5 °F - 49.5 °F 96% 29.88 in 10.0 mi SE 5.8 mph - 0.00 in   Overcast
8:58 PM 50.2 °F - 49.1 °F 96% 29.88 in 10.0 mi SE 3.5 mph - N/A   Overcast
9:58 PM 49.6 °F - 48.9 °F 97% 29.88 in 10.0 mi SE 4.6 mph - N/A   Overcast
10:09 PM 50.0 °F - 48.2 °F 94% 29.86 in 10.0 mi SE 4.6 mph - N/A   Light Drizzle
10:12 PM 50.0 °F - 48.2 °F 94% 29.86 in 10.0 mi SE 3.5 mph - N/A   Overcast
10:24 PM 50.0 °F - 48.2 °F 94% 29.86 in 10.0 mi SE 2.3 mph - N/A   Light Drizzle
10:32 PM 50.0 °F - 48.2 °F 94% 29.86 in 10.0 mi East 2.3 mph - N/A   Overcast
10:45 PM 50.0 °F - 48.2 °F 94% 29.86 in 10.0 mi Calm Calm - N/A   Light Drizzle
10:55 PM 50.0 °F - 48.2 °F 94% 29.86 in 10.0 mi Calm Calm - N/A   Overcast
10:58 PM 49.6 °F - 48.9 °F 97% 29.88 in 10.0 mi Calm Calm - 0.00 in   Overcast
11:25 PM 50.0 °F - 48.2 °F 94% 29.86 in 10.0 mi SSE 2.3 mph - N/A   Light Drizzle
11:58 PM 49.8 °F - 49.3 °F 98% 29.87 in 10.0 mi Calm Calm - 0.00 in Rain Rain